N244BR KLAX-KPHX

Flight info

Callsign N244BR
Flight time 1h 12m
Altitude VFR/175
Route S
Aircraft C25C/M-VGD/A

Departure

Time 2026-04-21 03:46
Airport Los Angeles International Airport (KLAX)

Arrival

Time 2026-04-21 04:59
Airport Phoenix Sky Harbor International Airport (KPHX)
Time Latitude Longitude Altitude Speed Heading
2026-04-21 03:40 33.73372 -118.97330 2762 ft 230 kts 191°
2026-04-21 03:40 33.71772 -118.97287 2750 ft 234 kts 165°
2026-04-21 03:40 33.70403 -118.96333 2855 ft 230 kts 139°
2026-04-21 03:40 33.69208 -118.94743 1325 ft 289 kts 126°
2026-04-21 03:41 33.68113 -118.92884 1698 ft 264 kts 124°
2026-04-21 03:41 33.67116 -118.91137 2066 ft 244 kts 124°
2026-04-21 03:41 33.66220 -118.89490 2434 ft 228 kts 122°
2026-04-21 03:41 33.65289 -118.87991 2622 ft 223 kts 137°
2026-04-21 03:42 33.63982 -118.86992 2667 ft 225 kts 155°
2026-04-21 03:42 33.62568 -118.86159 2671 ft 228 kts 156°
2026-04-21 03:42 33.61266 -118.85078 2695 ft 230 kts 134°
2026-04-21 03:42 33.60341 -118.83470 2702 ft 233 kts 117°
2026-04-21 03:43 33.59803 -118.81637 2706 ft 235 kts 102°
2026-04-21 03:43 33.59623 -118.79682 2708 ft 237 kts 90°
2026-04-21 03:43 33.59658 -118.77708 2709 ft 237 kts 88°
2026-04-21 03:43 33.59758 -118.75725 2701 ft 239 kts 87°
2026-04-21 03:44 33.59796 -118.73757 2779 ft 236 kts 88°
2026-04-21 03:44 33.59839 -118.71859 3204 ft 218 kts 89°
2026-04-21 03:44 33.59876 -118.70118 3708 ft 199 kts 88°
2026-04-21 03:44 33.59908 -118.68527 4199 ft 185 kts 88°
2026-04-21 03:45 33.59946 -118.66760 4725 ft 243 kts 89°
2026-04-21 03:45 33.59996 -118.64477 5286 ft 302 kts 88°
2026-04-21 03:45 33.60050 -118.61977 5826 ft 279 kts 88°
2026-04-21 03:45 33.60102 -118.59722 6367 ft 260 kts 88°
2026-04-21 03:46 33.60145 -118.57641 6890 ft 240 kts 88°
2026-04-21 03:46 33.60190 -118.55717 7400 ft 223 kts 88°
2026-04-21 03:46 33.60229 -118.53922 7903 ft 208 kts 88°
2026-04-21 03:46 33.60264 -118.52241 8400 ft 195 kts 88°
2026-04-21 03:47 33.60299 -118.50675 8889 ft 182 kts 88°
2026-04-21 03:47 33.60329 -118.49210 9376 ft 169 kts 88°
2026-04-21 03:47 33.60354 -118.47856 9849 ft 156 kts 88°
2026-04-21 03:47 33.60379 -118.46617 10316 ft 141 kts 89°
2026-04-21 03:48 33.60400 -118.45508 10761 ft 125 kts 88°
2026-04-21 03:48 33.60415 -118.44500 11071 ft 126 kts 88°
2026-04-21 03:48 33.60445 -118.43346 11565 ft 152 kts 89°
2026-04-21 03:48 33.60473 -118.41957 12141 ft 179 kts 88°
2026-04-21 03:49 33.60504 -118.40342 12623 ft 213 kts 88°
2026-04-21 03:49 33.60549 -118.38337 12646 ft 266 kts 88°
2026-04-21 03:49 33.60604 -118.35922 12650 ft 312 kts 88°
2026-04-21 03:49 33.60645 -118.34122 12649 ft 338 kts 88°
2026-04-21 03:50 33.60713 -118.31163 12644 ft 371 kts 88°
2026-04-21 03:50 33.60786 -118.27979 12637 ft 392 kts 88°
2026-04-21 03:50 33.60864 -118.24713 12614 ft 362 kts 88°
2026-04-21 03:50 33.60923 -118.22072 12613 ft 287 kts 88°
2026-04-21 03:51 33.60981 -118.19702 12608 ft 282 kts 88°
2026-04-21 03:51 33.61034 -118.17351 12610 ft 283 kts 88°
2026-04-21 03:51 33.61090 -118.14984 12609 ft 285 kts 88°
2026-04-21 03:51 33.61146 -118.12598 12609 ft 287 kts 88°
2026-04-21 03:52 33.61201 -118.10198 12609 ft 289 kts 88°
2026-04-21 03:52 33.61260 -118.07784 12609 ft 290 kts 88°
2026-04-21 03:52 33.61315 -118.05359 12610 ft 291 kts 88°
2026-04-21 03:52 33.61374 -118.02933 12609 ft 292 kts 88°
2026-04-21 03:53 33.61432 -118.00493 12609 ft 292 kts 88°
2026-04-21 03:53 33.61489 -117.98056 12608 ft 293 kts 88°
2026-04-21 03:53 33.61549 -117.95614 12609 ft 291 kts 88°
2026-04-21 03:53 33.61604 -117.93198 12611 ft 290 kts 88°
2026-04-21 03:54 33.61664 -117.90788 12605 ft 290 kts 88°
2026-04-21 03:54 33.61721 -117.88367 12603 ft 289 kts 88°
2026-04-21 03:54 33.61779 -117.85956 12604 ft 289 kts 88°
2026-04-21 03:54 33.61837 -117.83545 12603 ft 289 kts 88°
2026-04-21 03:55 33.61894 -117.81140 12601 ft 288 kts 88°
2026-04-21 03:55 33.61953 -117.78740 12601 ft 288 kts 88°
2026-04-21 03:55 33.62013 -117.76334 12600 ft 288 kts 88°
2026-04-21 03:55 33.62071 -117.73939 12601 ft 288 kts 88°
2026-04-21 03:56 33.62129 -117.71541 12600 ft 288 kts 88°
2026-04-21 03:56 33.62188 -117.69141 12599 ft 288 kts 88°
2026-04-21 03:56 33.62246 -117.66741 12599 ft 287 kts 88°
2026-04-21 03:56 33.62308 -117.64345 12599 ft 287 kts 88°
2026-04-21 03:57 33.62365 -117.61948 12598 ft 287 kts 88°
2026-04-21 03:57 33.62427 -117.59551 12597 ft 287 kts 88°
2026-04-21 03:57 33.62488 -117.57156 12598 ft 287 kts 88°
2026-04-21 03:57 33.62545 -117.54759 12598 ft 287 kts 88°
2026-04-21 03:58 33.62608 -117.52363 12596 ft 287 kts 88°
2026-04-21 03:58 33.62647 -117.50777 12596 ft 287 kts 88°
2026-04-21 03:58 33.62727 -117.47599 12595 ft 287 kts 88°
2026-04-21 03:58 33.62788 -117.45202 12596 ft 287 kts 88°
2026-04-21 03:59 33.62850 -117.42809 12595 ft 287 kts 88°
2026-04-21 03:59 33.62911 -117.40411 12594 ft 287 kts 88°
2026-04-21 03:59 33.62973 -117.38017 12593 ft 287 kts 88°
2026-04-21 04:00 33.63095 -117.33227 12596 ft 287 kts 88°
2026-04-21 04:00 33.63158 -117.30832 12595 ft 287 kts 88°
2026-04-21 04:00 33.63218 -117.28438 12595 ft 287 kts 88°
2026-04-21 04:00 33.63281 -117.26046 12596 ft 287 kts 88°
2026-04-21 04:01 33.63302 -117.25236 12594 ft 287 kts 88°
2026-04-21 04:01 33.63404 -117.21255 12595 ft 287 kts 88°
2026-04-21 04:01 33.63468 -117.18858 12596 ft 287 kts 88°
2026-04-21 04:01 33.63531 -117.16466 12595 ft 288 kts 88°
2026-04-21 04:02 33.63593 -117.14064 12594 ft 287 kts 88°
2026-04-21 04:02 33.63657 -117.11671 12595 ft 287 kts 88°
2026-04-21 04:02 33.63722 -117.09276 12594 ft 287 kts 88°
2026-04-21 04:02 33.63783 -117.06880 12595 ft 287 kts 88°
2026-04-21 04:03 33.63848 -117.04488 12594 ft 287 kts 88°
2026-04-21 04:03 33.63911 -117.02093 12593 ft 287 kts 88°
2026-04-21 04:03 33.63976 -116.99705 12593 ft 287 kts 88°
2026-04-21 04:03 33.64039 -116.97310 12593 ft 287 kts 88°
2026-04-21 04:04 33.64102 -116.94918 12592 ft 287 kts 88°
2026-04-21 04:04 33.64169 -116.92528 12592 ft 287 kts 88°
2026-04-21 04:04 33.64233 -116.90141 12592 ft 287 kts 88°
2026-04-21 04:04 33.64298 -116.87753 12591 ft 286 kts 88°
2026-04-21 04:05 33.64365 -116.85360 12591 ft 287 kts 88°
2026-04-21 04:05 33.64429 -116.82972 12594 ft 286 kts 88°
2026-04-21 04:05 33.64495 -116.80584 12595 ft 286 kts 88°
2026-04-21 04:05 33.64562 -116.78192 12594 ft 287 kts 88°
2026-04-21 04:06 33.64626 -116.75801 12591 ft 287 kts 88°
2026-04-21 04:06 33.64693 -116.73442 12595 ft 287 kts 88°
2026-04-21 04:06 33.64758 -116.71021 12595 ft 287 kts 88°
2026-04-21 04:06 33.64824 -116.68626 12593 ft 287 kts 88°
2026-04-21 04:07 33.64893 -116.66237 12593 ft 287 kts 88°
2026-04-21 04:07 33.64959 -116.63847 12591 ft 287 kts 88°
2026-04-21 04:07 33.65027 -116.61457 12592 ft 287 kts 88°
2026-04-21 04:07 33.65094 -116.59092 12593 ft 287 kts 88°
2026-04-21 04:08 33.65160 -116.56694 12593 ft 288 kts 88°
2026-04-21 04:08 33.65228 -116.54292 12594 ft 287 kts 88°
2026-04-21 04:08 33.65296 -116.51895 12596 ft 287 kts 88°
2026-04-21 04:08 33.65366 -116.49500 12598 ft 287 kts 88°
2026-04-21 04:09 33.65432 -116.47109 12597 ft 287 kts 88°
2026-04-21 04:09 33.65502 -116.44715 12597 ft 286 kts 88°
2026-04-21 04:09 33.65546 -116.43138 12598 ft 286 kts 88°
2026-04-21 04:09 33.65638 -116.39942 12598 ft 286 kts 88°
2026-04-21 04:10 33.65709 -116.37556 12599 ft 286 kts 88°
2026-04-21 04:10 33.65777 -116.35170 12600 ft 286 kts 88°
2026-04-21 04:10 33.65846 -116.32784 12599 ft 286 kts 88°
2026-04-21 04:10 33.65916 -116.30399 12601 ft 286 kts 88°
2026-04-21 04:11 33.65985 -116.28013 12601 ft 286 kts 88°
2026-04-21 04:11 33.66056 -116.25625 12602 ft 286 kts 88°
2026-04-21 04:11 33.66126 -116.23237 12603 ft 286 kts 88°
2026-04-21 04:11 33.66196 -116.20853 12603 ft 286 kts 88°
2026-04-21 04:12 33.66266 -116.18463 12603 ft 286 kts 88°
2026-04-21 04:12 33.66337 -116.16075 12603 ft 286 kts 88°
2026-04-21 04:12 33.66407 -116.13685 12602 ft 286 kts 88°
2026-04-21 04:12 33.66479 -116.11296 12602 ft 286 kts 88°
2026-04-21 04:13 33.66548 -116.08910 12603 ft 286 kts 88°
2026-04-21 04:13 33.66620 -116.06522 12602 ft 286 kts 88°
2026-04-21 04:13 33.66691 -116.04135 12602 ft 286 kts 88°
2026-04-21 04:13 33.66764 -116.01749 12602 ft 286 kts 88°
2026-04-21 04:14 33.66834 -115.99361 12601 ft 286 kts 88°
2026-04-21 04:14 33.66909 -115.96971 12600 ft 286 kts 88°
2026-04-21 04:14 33.66979 -115.94614 12599 ft 286 kts 88°
2026-04-21 04:14 33.67053 -115.92197 12599 ft 286 kts 88°
2026-04-21 04:15 33.67127 -115.89809 12599 ft 286 kts 88°
2026-04-21 04:15 33.67199 -115.87420 12599 ft 286 kts 88°
2026-04-21 04:15 33.67273 -115.85068 12599 ft 286 kts 88°
2026-04-21 04:15 33.67345 -115.82680 12598 ft 286 kts 88°
2026-04-21 04:16 33.67397 -115.81069 12598 ft 286 kts 88°
2026-04-21 04:16 33.67494 -115.77910 12597 ft 286 kts 88°
2026-04-21 04:16 33.67567 -115.75526 12598 ft 286 kts 88°
2026-04-21 04:16 33.67643 -115.73147 12597 ft 285 kts 88°
2026-04-21 04:17 33.67715 -115.70767 12596 ft 285 kts 88°
2026-04-21 04:17 33.67792 -115.68355 12596 ft 285 kts 88°
2026-04-21 04:17 33.67866 -115.65973 12597 ft 285 kts 88°
2026-04-21 04:17 33.67940 -115.63596 12596 ft 285 kts 88°
2026-04-21 04:18 33.68018 -115.61215 12596 ft 285 kts 88°
2026-04-21 04:18 33.68091 -115.58836 12597 ft 285 kts 88°
2026-04-21 04:18 33.68168 -115.56452 12597 ft 285 kts 88°
2026-04-21 04:18 33.68244 -115.54077 12598 ft 285 kts 88°
2026-04-21 04:19 33.68319 -115.51693 12597 ft 285 kts 88°
2026-04-21 04:19 33.68397 -115.49309 12598 ft 286 kts 88°
2026-04-21 04:19 33.68471 -115.46925 12598 ft 286 kts 88°
2026-04-21 04:19 33.68550 -115.44539 12597 ft 286 kts 88°
2026-04-21 04:20 33.68625 -115.42157 12597 ft 286 kts 88°
2026-04-21 04:20 33.68702 -115.39771 12597 ft 286 kts 88°
2026-04-21 04:20 33.68780 -115.37421 12597 ft 286 kts 88°
2026-04-21 04:20 33.68856 -115.35037 12598 ft 286 kts 88°
2026-04-21 04:21 33.68935 -115.32648 12599 ft 286 kts 88°
2026-04-21 04:21 33.69011 -115.30267 12599 ft 286 kts 88°
2026-04-21 04:21 33.69089 -115.27882 12599 ft 286 kts 88°
2026-04-21 04:21 33.69169 -115.25497 12599 ft 286 kts 88°
2026-04-21 04:22 33.69246 -115.23114 12599 ft 286 kts 88°
2026-04-21 04:22 33.69325 -115.20729 12598 ft 286 kts 88°
2026-04-21 04:22 33.69404 -115.18345 12599 ft 286 kts 88°
2026-04-21 04:22 33.69393 -115.15957 12598 ft 285 kts 92°
2026-04-21 04:23 33.69363 -115.13574 12598 ft 286 kts 90°
2026-04-21 04:23 33.69365 -115.11188 12598 ft 286 kts 90°
2026-04-21 04:23 33.69376 -115.08799 12599 ft 286 kts 90°
2026-04-21 04:23 33.69385 -115.06418 12599 ft 286 kts 89°
2026-04-21 04:24 33.69396 -115.04028 12599 ft 286 kts 90°
2026-04-21 04:24 33.69409 -115.01639 12599 ft 286 kts 89°
2026-04-21 04:24 33.69419 -114.99255 12599 ft 286 kts 89°
2026-04-21 04:24 33.69432 -114.96865 12599 ft 286 kts 90°
2026-04-21 04:25 33.69444 -114.94482 12599 ft 286 kts 89°
2026-04-21 04:25 33.69456 -114.92093 12600 ft 286 kts 90°
2026-04-21 04:25 33.69469 -114.89735 12599 ft 286 kts 89°
2026-04-21 04:25 33.69480 -114.87349 12600 ft 286 kts 89°
2026-04-21 04:26 33.69494 -114.84960 12601 ft 286 kts 90°
2026-04-21 04:26 33.69507 -114.82564 12599 ft 286 kts 89°
2026-04-21 04:26 33.69520 -114.80176 12599 ft 286 kts 89°
2026-04-21 04:26 33.69535 -114.77780 12599 ft 286 kts 89°
2026-04-21 04:27 33.69547 -114.75392 12599 ft 286 kts 89°
2026-04-21 04:27 33.69561 -114.73003 12601 ft 287 kts 90°
2026-04-21 04:27 33.69576 -114.70606 12600 ft 286 kts 89°
2026-04-21 04:27 33.69589 -114.68215 12600 ft 286 kts 89°
2026-04-21 04:28 33.69605 -114.65825 12600 ft 286 kts 89°
2026-04-21 04:28 33.69618 -114.63433 12599 ft 286 kts 89°
2026-04-21 04:28 33.69633 -114.61045 12599 ft 286 kts 89°
2026-04-21 04:28 33.69650 -114.58660 12600 ft 286 kts 90°
2026-04-21 04:29 33.69666 -114.56269 12601 ft 286 kts 89°
2026-04-21 04:29 33.69681 -114.53877 12601 ft 286 kts 89°
2026-04-21 04:29 33.69697 -114.51482 12603 ft 287 kts 89°
2026-04-21 04:29 33.69712 -114.49086 12603 ft 287 kts 89°
2026-04-21 04:30 33.69728 -114.46690 12600 ft 287 kts 89°
2026-04-21 04:30 33.69745 -114.44292 12601 ft 287 kts 89°
2026-04-21 04:30 33.69761 -114.41895 12602 ft 287 kts 89°
2026-04-21 04:30 33.69778 -114.39500 12601 ft 287 kts 89°
2026-04-21 04:31 33.69796 -114.37108 12601 ft 287 kts 89°
2026-04-21 04:31 33.69812 -114.34714 12600 ft 286 kts 89°
2026-04-21 04:31 33.69832 -114.32320 12600 ft 286 kts 89°
2026-04-21 04:31 33.69848 -114.29930 12600 ft 286 kts 89°
2026-04-21 04:32 33.69867 -114.27537 12599 ft 286 kts 89°
2026-04-21 04:32 33.69885 -114.25145 12599 ft 286 kts 89°
2026-04-21 04:32 33.69904 -114.22758 12599 ft 286 kts 89°
2026-04-21 04:32 33.69924 -114.20400 12599 ft 286 kts 89°
2026-04-21 04:33 33.69940 -114.18012 12599 ft 286 kts 89°
2026-04-21 04:33 33.69960 -114.15620 12598 ft 286 kts 89°
2026-04-21 04:33 33.69974 -114.14012 12598 ft 286 kts 89°
2026-04-21 04:33 33.69999 -114.10844 12598 ft 286 kts 89°
2026-04-21 04:34 33.70021 -114.08455 12598 ft 286 kts 89°
2026-04-21 04:34 33.70040 -114.06062 12598 ft 286 kts 89°
2026-04-21 04:34 33.70054 -114.04451 12598 ft 286 kts 89°
2026-04-21 04:34 33.70074 -114.02057 12597 ft 286 kts 89°
2026-04-21 04:35 33.70096 -113.99668 12597 ft 286 kts 89°
2026-04-21 04:35 33.70117 -113.97281 12596 ft 286 kts 89°
2026-04-21 04:35 33.70137 -113.94928 12597 ft 286 kts 89°
2026-04-21 04:35 33.70160 -113.92544 12597 ft 286 kts 89°
2026-04-21 04:36 33.70179 -113.90157 12597 ft 286 kts 89°
2026-04-21 04:36 33.70203 -113.87774 12597 ft 286 kts 89°
2026-04-21 04:36 33.70225 -113.85386 12597 ft 286 kts 89°
2026-04-21 04:36 33.70248 -113.83000 12597 ft 286 kts 89°
2026-04-21 04:37 33.70271 -113.80613 12598 ft 286 kts 89°
2026-04-21 04:37 33.70294 -113.78227 12599 ft 286 kts 89°
2026-04-21 04:37 33.70316 -113.75833 12598 ft 286 kts 89°
2026-04-21 04:37 33.70342 -113.73448 12597 ft 286 kts 89°
2026-04-21 04:38 33.70365 -113.71057 12598 ft 286 kts 89°
2026-04-21 04:38 33.70388 -113.68666 12597 ft 286 kts 89°
2026-04-21 04:38 33.70414 -113.66280 12597 ft 286 kts 89°
2026-04-21 04:38 33.70436 -113.63894 12597 ft 286 kts 89°
2026-04-21 04:39 33.70462 -113.61509 12597 ft 286 kts 89°
2026-04-21 04:39 33.70488 -113.59122 12597 ft 286 kts 89°
2026-04-21 04:39 33.70511 -113.56734 12597 ft 286 kts 89°
2026-04-21 04:39 33.70537 -113.54347 12598 ft 286 kts 89°
2026-04-21 04:40 33.70563 -113.51961 12599 ft 286 kts 89°
2026-04-21 04:40 33.70587 -113.49577 12599 ft 286 kts 89°
2026-04-21 04:40 33.70616 -113.47189 12600 ft 286 kts 89°
2026-04-21 04:40 33.70538 -113.44807 12599 ft 285 kts 93°
2026-04-21 04:41 33.70430 -113.42461 12599 ft 286 kts 93°
2026-04-21 04:41 33.70318 -113.40081 12600 ft 286 kts 93°
2026-04-21 04:41 33.70207 -113.37702 12599 ft 286 kts 93°
2026-04-21 04:41 33.70099 -113.35321 12600 ft 286 kts 93°
2026-04-21 04:42 33.69986 -113.32935 12600 ft 286 kts 93°
2026-04-21 04:42 33.69879 -113.30555 12600 ft 286 kts 93°
2026-04-21 04:42 33.69768 -113.28172 12600 ft 286 kts 93°
2026-04-21 04:42 33.69659 -113.25791 12600 ft 286 kts 93°
2026-04-21 04:43 33.69551 -113.23407 12600 ft 286 kts 93°
2026-04-21 04:43 33.69440 -113.21025 12600 ft 286 kts 93°
2026-04-21 04:43 33.69333 -113.18640 12600 ft 286 kts 93°
2026-04-21 04:43 33.69224 -113.16257 12600 ft 286 kts 93°
2026-04-21 04:44 33.69116 -113.13881 12600 ft 286 kts 93°
2026-04-21 04:44 33.69010 -113.11496 12600 ft 286 kts 93°
2026-04-21 04:44 33.68900 -113.09116 12600 ft 286 kts 93°
2026-04-21 04:44 33.68794 -113.06730 12599 ft 286 kts 94°
2026-04-21 04:45 33.68331 -113.04453 12592 ft 285 kts 112°
2026-04-21 04:45 33.67505 -113.02291 12594 ft 285 kts 116°
2026-04-21 04:45 33.66350 -113.00377 12590 ft 285 kts 137°
2026-04-21 04:45 33.64850 -112.98831 12590 ft 284 kts 136°
2026-04-21 04:46 33.63812 -112.96826 12591 ft 285 kts 114°
2026-04-21 04:46 33.63164 -112.94587 12595 ft 285 kts 105°
2026-04-21 04:46 33.62668 -112.92283 12598 ft 285 kts 104°
2026-04-21 04:46 33.62205 -112.89937 12149 ft 288 kts 103°
2026-04-21 04:47 33.61758 -112.87642 11621 ft 277 kts 103°
2026-04-21 04:47 33.61333 -112.85425 11102 ft 269 kts 103°
2026-04-21 04:47 33.60920 -112.83271 10570 ft 262 kts 103°
2026-04-21 04:47 33.60584 -112.81140 10047 ft 257 kts 98°
2026-04-21 04:48 33.60348 -112.79034 9514 ft 253 kts 97°
2026-04-21 04:48 33.60133 -112.76955 8989 ft 249 kts 97°
2026-04-21 04:48 33.59922 -112.74903 8461 ft 246 kts 97°
2026-04-21 04:48 33.59716 -112.72873 7934 ft 244 kts 97°
2026-04-21 04:49 33.59511 -112.70860 7405 ft 242 kts 97°
2026-04-21 04:49 33.59308 -112.68865 6882 ft 240 kts 97°
2026-04-21 04:49 33.59109 -112.66884 6353 ft 238 kts 97°
2026-04-21 04:49 33.58908 -112.64919 5833 ft 237 kts 97°
2026-04-21 04:50 33.58709 -112.62964 5305 ft 236 kts 97°
2026-04-21 04:50 33.58513 -112.61018 4788 ft 234 kts 97°
2026-04-21 04:50 33.58316 -112.59076 4263 ft 235 kts 97°
2026-04-21 04:50 33.58121 -112.57138 3737 ft 233 kts 97°
2026-04-21 04:51 33.57831 -112.55258 3369 ft 225 kts 107°
2026-04-21 04:51 33.57361 -112.53503 3043 ft 216 kts 109°
2026-04-21 04:51 33.56884 -112.51772 2386 ft 223 kts 105°
2026-04-21 04:51 33.56651 -112.50071 2475 ft 197 kts 95°
2026-04-21 04:52 33.56387 -112.48568 2613 ft 176 kts 103°
2026-04-21 04:52 33.56104 -112.47076 2594 ft 196 kts 103°
2026-04-21 04:52 33.55807 -112.45528 3050 ft 183 kts 103°
2026-04-21 04:52 33.55537 -112.44105 3572 ft 168 kts 103°
2026-04-21 04:53 33.55286 -112.42803 4097 ft 152 kts 102°
2026-04-21 04:53 33.55064 -112.41627 4607 ft 137 kts 103°
2026-04-21 04:53 33.54866 -112.40592 5101 ft 118 kts 102°
2026-04-21 04:53 33.54671 -112.39577 5578 ft 147 kts 103°
2026-04-21 04:54 33.54371 -112.38103 6020 ft 221 kts 106°
2026-04-21 04:54 33.53808 -112.36013 6050 ft 302 kts 109°
2026-04-21 04:54 33.52757 -112.33842 6035 ft 282 kts 129°
2026-04-21 04:54 33.51477 -112.32038 6031 ft 282 kts 131°
2026-04-21 04:55 33.50184 -112.30314 6020 ft 274 kts 133°
2026-04-21 04:55 33.48916 -112.28650 6012 ft 267 kts 133°
2026-04-21 04:55 33.47669 -112.27027 6014 ft 262 kts 133°
2026-04-21 04:55 33.46449 -112.25432 6009 ft 258 kts 133°
2026-04-21 04:56 33.45244 -112.23861 6010 ft 255 kts 133°
2026-04-21 04:56 33.44050 -112.22305 6009 ft 252 kts 133°
2026-04-21 04:56 33.43581 -112.20454 6210 ft 240 kts 90°
2026-04-21 04:56 33.43611 -112.18403 5924 ft 252 kts 87°
2026-04-21 04:57 33.43725 -112.16249 5426 ft 260 kts 83°
2026-04-21 04:57 33.43967 -112.14143 4821 ft 254 kts 80°
2026-04-21 04:57 33.44167 -112.12108 4310 ft 241 kts 86°
2026-04-21 04:57 33.44223 -112.10135 3495 ft 238 kts 90°
2026-04-21 04:58 33.44179 -112.08146 2629 ft 233 kts 92°
2026-04-21 04:58 33.44102 -112.06372 2140 ft 197 kts 88°
2026-04-21 04:58 33.44099 -112.04833 1623 ft 173 kts 86°
2026-04-21 04:58 33.44089 -112.03475 1277 ft 153 kts 85°
2026-04-21 04:59 33.44089 -112.02281 1123 ft 129 kts 88°
2026-04-21 04:59 33.44091 -112.01565 1126 ft 32 kts 91°
2026-04-21 04:59 33.44090 -112.01525 1126 ft 0 kts 91°
2026-04-21 04:59 33.44088 -112.01039 1126 ft 119 kts 88°
2026-04-21 05:00 33.44085 -112.00042 1128 ft 91 kts 90°
2026-04-21 05:00 33.44085 -111.99553 1132 ft 49 kts 90°
2026-04-21 05:00 33.44194 -111.99159 1127 ft 23 kts 89°
2026-04-21 05:01 33.44194 -111.99048 1125 ft 0 kts 88°